Regional Weather Roundup
Issued by NWS

Home | Current Version | Previous Version | Text Only | Print | Product List | Glossary Off
Versions: 1 2 3 4 5 6 7 8 9 10 11 12 13 14 15 16 17 18 19 20 21 22 23 24 25 26 27 28 29 30 31 32 33 34 35 36 37 38 39 40 41 42 43 44 45 46 47 48 49 50

000
ASUS43 KIND 020609
RWRIN

WEATHER ROUNDUP FOR INDIANA
NATIONAL WEATHER SERVICE INDIANAPOLIS IN
200 AM EDT THU JUL 02 2015

NOTE: "FAIR" INDICATES FEW OR NO CLOUDS BELOW 12,000 FEET WITH NO
SIGNIFICANT WEATHER AND/OR OBSTRUCTIONS TO VISIBILITY.

* - STATION DOES NOT REPORT WEATHER SUCH AS PRECIPITATION OR FOG.

+ - STATION NOT QUALITY CONTROLLED BY THE NATIONAL WEATHER SERVICE.
    USE DATA WITH CAUTION...ESPECIALLY DEWPOINT AND RELATIVE
    HUMIDITY OBSERVATIONS.

INZ001>003-010>013-019-020-020700-
NORTHWEST INDIANA

CITY           SKY/WX    TMP DP  RH WIND       PRES   REMARKS
RENSSELAER +   MOCLDY    57  55  94 N6        29.98F
VALPARAISO     CLOUDY    58  54  86 N3        29.99S
6HR MIN TEMP:  56; 6HR MAX TEMP:  61;


$$

LMZ046-743>745-020700-
SOUTHERN LAKE MICHIGAN

STATION/POSITION TIME  TEMP    WIND        PRES    WAVE
                       AIR SEA DIR/SP/G            HT
                 (UTC) (F)     (DEG/KT/KT) (MB)    (FT)
BURNS HARBOR     0600   58      20/  7/  9 1016.3S
MICHIGAN CITY    0600   59      20/ 11/ 12   N/A
5NW MICH CITY    0600   60 64   50/ 10/ 12   N/A     3

$$

INZ004-005-014>016-021>024-020700-
NORTH CENTRAL INDIANA

CITY           SKY/WX    TMP DP  RH WIND       PRES   REMARKS
GOSHEN         MOCLDY    56  53  90 N5        29.97F
6HR MIN TEMP:  55; 6HR MAX TEMP:  64;

PERU/GRISSOM   CLOUDY    58  54  84 N6        29.95S
6HR MIN TEMP:  58; 6HR MAX TEMP:  70;

SOUTH BEND     MOCLDY    56  53  90 CALM      29.99S
6HR MIN TEMP:  55; 6HR MAX TEMP:  62;


$$

INZ006>009-017-018-025>027-020700-
NORTHEAST INDIANA

CITY           SKY/WX    TMP DP  RH WIND       PRES   REMARKS
ANGOLA *+        N/A     59  48  67 CALM      29.97S
FORT WAYNE     MOCLDY    59  55  87 N7        29.97S
6HR MIN TEMP:  59; 6HR MAX TEMP:  71;


$$

INZ028-029-035-036-043>045-051>053-020700-
WEST CENTRAL INDIANA

CITY           SKY/WX    TMP DP  RH WIND       PRES   REMARKS
CRAWFORDSVL +  MOCLDY    59  49  69 N9        29.94S
6HR MIN TEMP:  59; 6HR MAX TEMP:  70;

GREENCASTLE +  MOCLDY    63  54  72 N7        29.93S
LAFAYETTE      CLOUDY    59  52  77 NE7       29.95F
6HR MIN TEMP:  59; 6HR MAX TEMP:  70;

TERRE HAUTE    CLOUDY    67  63  87 N10       29.91R
6HR MIN TEMP:  67; 6HR MAX TEMP:  72; 6HR PCP:  0.01;


$$

INZ030>032-037>040-046>048-054>057-064-065-020700-
CENTRAL INDIANA

CITY           SKY/WX    TMP DP  RH WIND       PRES   REMARKS
GREENWOOD *+   CLOUDY    68  59  73 NE6       29.93S
INDIANAPOLIS   CLOUDY    67  58  72 NE12      29.91S
6HR MIN TEMP:  67; 6HR MAX TEMP:  75;

-EAGLE CREEK   CLOUDY    65  57  75 NE6       29.93S
6HR MIN TEMP:  65; 6HR MAX TEMP:  73;

KOKOMO *+      CLOUDY    61  54  77 N7        29.95F
6HR MIN TEMP:  59; 6HR MAX TEMP:  72;

SHELBYVILLE    CLOUDY    70  66  87 N3        29.91S
6HR MIN TEMP:  70; 6HR MAX TEMP:  76; 6HR PCP:  0.04;


$$

INZ033-034-041-042-049-050-058-059-020700-
EAST CENTRAL INDIANA

CITY           SKY/WX    TMP DP  RH WIND       PRES   REMARKS
MUNCIE         MOCLDY    64  58  80 N8        29.94F
6HR MIN TEMP:  63; 6HR MAX TEMP:  73;


$$

INZ060-061-067>069-081>083-085>088-020700-
SOUTHWEST INDIANA

CITY           SKY/WX    TMP DP  RH WIND       PRES   REMARKS
EVANSVILLE     LGT RAIN  73  70  90 SW9       29.90F
6HR MIN TEMP:  73; 6HR MAX TEMP:  80; 6HR PCP:  0.13;

HUNTINGBURG *+ CLOUDY    72  68  88 SE3       29.91S
6HR MIN TEMP:  72; 6HR MAX TEMP:  77; 6HR PCP:  0.63;


$$

INZ062-063-066-070>080-084-089>092-020700-
SOUTH CENTRAL AND SOUTHEAST INDIANA

CITY           SKY/WX    TMP DP  RH WIND       PRES   REMARKS
BLOOMINGTON    MOCLDY    71  69  93 S5        29.90F
6HR MIN TEMP:  70; 6HR MAX TEMP:  74; 6HR PCP:  0.02;

NORTH VERNON + CLOUDY    70  70 100 CALM      29.91F
SEYMOUR +      CLOUDY    72  70  94 S5        29.91S FOG

$$



USA.gov is the U.S. government's official web portal to all federal, state and local government web resources and services.